Weather History for McCook, NE

Change the Weather History Date:

Monday, January 21, 2013

  Actual Average Record
Temperature  
Mean Temperature 22 °F 27 °F  
Max Temperature 31 °F 41 °F 70 °F (1950)
Min Temperature 13 °F 14 °F -19 °F (1930)
Degree Days  
Heating Degree Days 43    
Moisture  
Dew Point 17 °F    
Average Humidity 84    
Maximum Humidity 92    
Minimum Humidity 69    
Precipitation  
Precipitation 0.00 in 0.01 in 0.06 in (1966)
Month to date precipitation T 0.34  
Year to date precipitation T 0.34  
Sea Level Pressure  
Sea Level Pressure 30.33 in    
Wind  
Wind Speed 5 mph (East)    
Max Wind Speed 13 mph    
Max Gust Speed -    
Visibility 9 miles    
Events      
T = Trace of Precipitation, MM = Missing Value Source: NWS Daily Summary

Daily Weather History Graph

Daily Weather History Graph

Search for Another Location

Airport:

Trip Planner

Search our weather history database for the weather conditions in past years. The results will help you decide how hot, cold, wet, or windy it might be!

Date:

Astronomy

Jan. 21, 2013 Rise Set
Actual Time 7:59 AM CST 5:48 PM CST
Civil Twilight 7:30 AM CST 6:17 PM CST
Nautical Twilight 6:57 AM CST 6:50 PM CST
Astronomical Twilight 6:24 AM CST 7:23 PM CST
Moon 1:29 PM CST (1/21) 3:29 AM CST (1/21)
Length of Visible Light 10h 47m
Length of Day
9h 48m
Waxing Gibbous, 75% of the Moon is Illuminated
Jan 21
Waxing Gibbous
Jan 26
Full
Feb 3
Last Quarter
Feb 10
New
Feb 17
First Quarter

Hourly Weather History & Observations

Time (CST) Temp. Windchill Dew Point Humidity Pressure Visibility Wind Dir Wind Speed Gust Speed Precip Events Conditions
12:53 AM 17.1 °F - 14.0 °F 88% 30.44 in 10.0 mi Calm Calm - N/A   Partly Cloudy
1:53 AM 17.1 °F 8.7 °F 12.9 °F 84% 30.42 in 10.0 mi SW 5.8 mph - N/A   Clear
2:53 AM 17.1 °F 11.7 °F 14.0 °F 88% 30.42 in 10.0 mi West 3.5 mph - N/A   Clear
3:53 AM 16.0 °F - 12.9 °F 88% 30.42 in 10.0 mi Calm Calm - N/A   Clear
4:53 AM 16.0 °F 6.3 °F 12.0 °F 84% 30.41 in 10.0 mi West 6.9 mph - N/A   Clear
5:53 AM 16.0 °F 6.3 °F 12.0 °F 84% 30.39 in 10.0 mi SSW 6.9 mph - N/A   Clear
6:53 AM 14.0 °F 8.2 °F 10.9 °F 88% 30.40 in 10.0 mi NE 3.5 mph - N/A   Clear
7:53 AM 14.0 °F 8.2 °F 10.9 °F 88% 30.40 in 10.0 mi ENE 3.5 mph - N/A   Clear
8:53 AM 16.0 °F 5.3 °F 12.9 °F 88% 30.38 in 10.0 mi South 8.1 mph - N/A   Clear
9:53 AM 21.9 °F - 18.0 °F 85% 30.37 in 10.0 mi Calm Calm - N/A   Clear
10:53 AM 23.0 °F 18.4 °F 18.0 °F 81% 30.39 in 10.0 mi NE 3.5 mph - N/A   Clear
11:53 AM 25.0 °F 19.3 °F 19.0 °F 78% 30.35 in 10.0 mi SE 4.6 mph - N/A   Clear
12:53 PM 28.9 °F 21.9 °F 19.9 °F 69% 30.34 in 10.0 mi NE 6.9 mph - N/A   Clear
1:53 PM 28.9 °F 21.9 °F 21.0 °F 72% 30.31 in 10.0 mi ENE 6.9 mph - N/A   Clear
2:53 PM 30.9 °F 23.5 °F 21.9 °F 69% 30.29 in 10.0 mi ENE 8.1 mph - N/A   Partly Cloudy
3:53 PM 30.9 °F 24.3 °F 21.9 °F 69% 30.28 in 10.0 mi East 6.9 mph - N/A   Clear
4:53 PM 27.0 °F 17.3 °F 21.9 °F 81% 30.29 in 8.0 mi East 10.4 mph - N/A   Clear
5:26 PM 26.6 °F 17.5 °F 21.2 °F 80% 30.17 in 7.0 mi East 9.2 mph - N/A   Scattered Clouds
5:37 PM 24.8 °F 13.4 °F 21.2 °F 86% 30.17 in 6.0 mi East 12.7 mph - N/A   Mostly Cloudy
5:53 PM 24.1 °F 13.1 °F 21.0 °F 88% 30.28 in 6.0 mi ENE 11.5 mph - N/A   Overcast
6:53 PM 23.0 °F 11.7 °F 19.9 °F 88% 30.30 in 6.0 mi East 11.5 mph - N/A   Overcast
7:53 PM 21.0 °F 11.4 °F 19.0 °F 92% 30.31 in 5.0 mi East 8.1 mph - N/A   Overcast
8:53 PM 21.0 °F 8.6 °F 19.0 °F 92% 30.31 in 6.0 mi ESE 12.7 mph - N/A   Overcast
9:53 PM 19.9 °F 7.3 °F 17.1 °F 89% 30.29 in 7.0 mi ESE 12.7 mph - N/A   Overcast
10:53 PM 19.0 °F 6.8 °F 16.0 °F 88% 30.29 in 9.0 mi SE 11.5 mph - N/A   Overcast
11:53 PM 19.0 °F 6.1 °F 15.1 °F 85% 30.29 in 10.0 mi SE 12.7 mph - N/A   Overcast